sat.trackr.live / text

‹ back to catalog

SES-15 (WAAS/PRN 133)

NORAD 42709 · 2017-026A

PAYLOAD ACTIVE UNKNOWN

§ Identity

Operator
Country
SES
Launch date
2017-05-18
Launch site
FRGUI
Launch vehicle
Mass (kg)
RCS (m²)

Purposes: comms, nav

External: N2YO · Heavens-Above · Gunter

§ Orbital elements

Epoch: 2026-05-25T05:38:11.609376Z

Period
1,436.12 min
Inclination
0.0196°
Eccentricity
0.0000545
Mean motion
1.00270113 rev/d
Perigee alt
35,784.8 km
Apogee alt
35,789.4 km
Semi-major
42,165.2 km
B*
0.0000e+0
RAAN
334.8415°
Arg perigee
69.4151°
Mean anomaly
153.9628°
Rev number
720

§ Raw data

SES-15 (WAAS/PRN 133)1 42709U 17026A   26145.23485659  .00000058  00000+0  00000+0 0  99992 42709   0.0196 334.8415 0000545  69.4151 153.9628  1.00270113  7206

JSON: /api/v1/satellites/42709 · /tle

For live sub-satellite position, see the globe view (requires WebGL).

§ Visibility from observer

Set your observer location to see the next 7 days of passes ≥ 10°. The values pass through the URL so the page stays shareable.

No JS? Fill the form by hand. The geolocation button needs JavaScript.